Location: Greenwich
(51.4790°N, 0.0090°E)
Time: 14:52:48
(UTC+01:00)

Transit 2A - Visible Passes

Search period start: 13 July 2025 00:00
Search period end: 23 July 2025 00:00
Orbit: 598 x 948 km, 66.7° (Epoch: 12 July)

Date Brightness Start Highest point End Pass type
(mag) Time Alt. Az. Time Alt. Az. Time Alt. Az.
13 Jul 8.2 01:19:42 10° NNW 01:23:30 23° NNE 01:27:32 10° E visible
13 Jul 6.0 03:02:17 10° NW 03:07:09 84° NE 03:12:30 10° SE visible
13 Jul 8.8 23:00:21 10° NNW 23:02:17 12° N 23:04:15 10° NNE visible
14 Jul 8.4 00:43:44 10° NNW 00:47:09 19° NNE 00:50:46 10° ENE visible
14 Jul 6.4 02:26:16 10° NNW 02:31:03 61° NE 02:36:19 10° SE visible
14 Jul 6.9 04:09:40 10° WNW 04:13:51 27° WSW 04:18:19 10° S visible
14 Jul 8.7 22:23:46 10° NNW 22:25:48 13° N 22:27:53 10° NNE visible
15 Jul 8.6 00:07:45 10° NNW 00:10:46 17° NNE 00:13:55 10° ENE visible
15 Jul 6.9 01:50:17 10° NNW 01:54:54 45° NE 01:59:58 10° ESE visible
15 Jul 6.5 03:33:21 10° NW 03:37:55 38° WSW 03:42:54 10° S visible
15 Jul 8.6 21:47:02 10° NW 21:49:20 14° NNW 21:51:41 10° NNE visible
15 Jul 8.6 23:31:43 10° NNW 23:34:19 15° NNE 23:37:04 10° NE visible
16 Jul 7.4 01:14:18 10° NNW 01:18:42 35° NE 01:23:29 10° ESE visible
16 Jul 6.0 02:57:09 10° NW 03:01:57 55° WSW 03:07:13 10° SSE visible
16 Jul 8.6 22:55:35 10° NNW 22:57:52 13° N 23:00:14 10° NE visible
17 Jul 7.8 00:38:21 10° NNW 00:42:27 28° NE 00:46:53 10° E visible
17 Jul 5.8 02:21:02 10° NW 02:25:56 77° SW 02:31:21 10° SSE visible
17 Jul 7.6 04:05:34 10° WNW 04:08:20 15° WSW 04:11:13 10° SW visible
17 Jul 8.6 22:19:19 10° NNW 22:21:23 13° N 22:23:31 10° NNE visible
18 Jul 8.0 00:02:23 10° NNW 00:06:09 23° NNE 00:10:10 10° E visible
18 Jul 6.0 01:44:58 10° NW 01:49:52 78° NE 01:55:16 10° SE visible
18 Jul 7.3 03:28:44 10° WNW 03:32:30 21° WSW 03:35:32 14° SSW visible
18 Jul 8.3 23:26:25 10° NNW 23:29:48 19° NNE 23:33:22 10° ENE visible
19 Jul 6.5 01:08:58 10° NNW 01:13:46 57° NE 01:19:00 10° SE visible
19 Jul 6.8 02:52:16 10° NW 02:56:37 30° WSW 02:59:17 20° SSW visible
19 Jul 8.4 22:50:25 10° NNW 22:53:23 16° NNE 22:56:31 10° ENE visible
20 Jul 6.9 00:32:58 10° NNW 00:37:36 43° NE 00:42:39 10° ESE visible
20 Jul 6.4 02:15:59 10° NW 02:20:40 42° WSW 02:23:15 25° S visible
20 Jul 8.4 22:14:20 10° NNW 22:16:57 14° NNE 22:19:39 10° NE visible
20 Jul 7.4 23:57:00 10° NNW 00:01:23 33° NE 00:06:09 10° ESE visible
21 Jul 6.0 01:39:48 10° NW 01:44:41 60° WSW 01:47:22 29° SSE visible
21 Jul 8.0 03:25:34 10° W 03:26:54 11° WSW 03:27:40 11° WSW visible
21 Jul 7.7 23:21:02 10° NNW 23:25:07 26° NNE 23:29:30 10° E visible
22 Jul 5.9 01:03:42 10° NW 01:08:40 84° SW 01:11:36 28° SSE visible
22 Jul 7.6 02:47:58 10° WNW 02:51:07 16° WSW 02:51:54 16° WSW visible
22 Jul 7.9 22:45:04 10° NNW 22:48:47 22° NNE 22:52:46 10° E visible
